Location: Beaufort Park
(39.1418°N, 76.9433°W)
Time: 20:52:40
(UTC+00:00)

CORIOLIS - Pass Details

Date: 29 October 2020
Orbit: 819 x 838 km, 98.7° (Epoch: 03 December)

Event Time Altitude Azimuth Distance (km) Brightness Sun altitude
Rises 22:30:34 0° 159° (SSE) 3,334 7.2 -4.7°
Reaches altitude 10° 22:32:54 10° 157° (SSE) 2,406 6.5 -5.2°
Maximum altitude 22:38:11 71° 74° (ENE) 866 4.1 -6.2°
Drops below altitude 10° 22:43:32 10° 351° (N) 2,428 6.6 -7.2°
Sets 22:45:54 0° 350° (N) 3,367 7.3 -7.6°
